Waskish, MN

12:33 PM CDT on March 27, 2017 (GMT -0500)
Waskish Municipal

Weather History for KVWU - October, 2012

Change the Weather History Date:

Thursday, October 4, 2012

  Actual Average (KBDE) Record (KBDE)
Temperature  
Mean Temperature 40 °F -  
Max Temperature 46 °F 60 °F 82 °F (2011)
Min Temperature 33 °F 37 °F 22 °F (1936)
Degree Days  
Heating Degree Days 26    
Moisture  
Dew Point 37 °F    
Average Humidity 93    
Maximum Humidity 100    
Minimum Humidity 76    
Precipitation  
Precipitation 0.39 in - - ()
Sea Level Pressure  
Sea Level Pressure 29.79 in    
Wind  
Wind Speed 17 mph (NW)    
Max Wind Speed 29 mph    
Max Gust Speed 41 mph    
Visibility 8 miles    
Events Rain , Snow , Thunderstorm    
Averages and records for this station are not official NWS values.
T = Trace of Precipitation, MM = Missing Value Source: NWS Daily Summary

Daily Weather History Graph

Daily Weather History Graph

Search for Another Location

Airport or City:

Trip Planner

Search our weather history database for the weather conditions in past years. The results will help you decide how hot, cold, wet, or windy it might be!

Date:

Astronomy

Oct. 04, 2012 Rise Set
Actual Time 7:22 AM CDT 6:50 PM CDT
Civil Twilight 6:51 AM CDT 7:21 PM CDT
Nautical Twilight 6:15 AM CDT 7:57 PM CDT
Astronomical Twilight 5:38 AM CDT 8:33 PM CDT
Moon 9:04 PM CDT (10/4) 12:01 PM CDT (10/4)
Length of Visible Light 12h 29m
Length of Day
11h 27m
Waning Gibbous, 82% of the Moon is Illuminated
Oct 4
Waning Gibbous
Oct 8
Last Quarter
Oct 15
New
Oct 21
First Quarter
Oct 29
Full

Hourly Weather History & Observations

Time (CDT) Temp. Windchill Dew Point Humidity Pressure Visibility Wind Dir Wind Speed Gust Speed Precip Events Conditions
12:13 AM 46.4 °F 40.7 °F 41.0 °F 81% 29.95 in 10.0 mi NNE 12.7 mph 20.7 mph N/A   Light Drizzle
12:33 AM 46.4 °F 41.5 °F 39.2 °F 76% 29.95 in 10.0 mi NNE 10.4 mph 20.7 mph N/A   Mostly Cloudy
12:53 AM 46.4 °F 41.9 °F 39.2 °F 76% 29.98 in 10.0 mi NNW 9.2 mph - N/A   Overcast
1:13 AM 44.6 °F 38.8 °F 39.2 °F 81% 29.96 in 10.0 mi North 11.5 mph 18.4 mph 0.02 in Rain Rain
1:33 AM 44.6 °F 38.8 °F 41.0 °F 87% 29.94 in 10.0 mi NNE 11.5 mph - 0.04 in Rain Light Rain
1:53 AM 44.6 °F 37.8 °F 41.0 °F 87% 29.93 in 10.0 mi NNE 15.0 mph 20.7 mph 0.07 in Rain Light Rain
2:13 AM 44.6 °F 38.4 °F 41.0 °F 87% 29.90 in 10.0 mi NNE 12.7 mph - 0.01 in Rain Light Rain
2:33 AM 42.8 °F 35.8 °F 41.0 °F 93% 29.87 in 10.0 mi NNE 13.8 mph 19.6 mph 0.02 in Rain Light Rain
2:53 AM 42.8 °F 35.4 °F 41.0 °F 93% 29.86 in 10.0 mi NNE 15.0 mph 24.2 mph 0.03 in Rain Light Rain
3:13 AM 42.8 °F 34.3 °F 41.0 °F 93% 29.83 in 10.0 mi NE 19.6 mph 27.6 mph N/A   Light Drizzle
3:33 AM 42.8 °F 35.1 °F 41.0 °F 93% 29.82 in 10.0 mi NNE 16.1 mph 25.3 mph N/A Rain Light Rain
3:54 AM 42.8 °F 35.8 °F 41.0 °F 93% 29.81 in 10.0 mi NNE 13.8 mph 20.7 mph N/A   Light Drizzle
4:13 AM 42.8 °F 35.8 °F 39.2 °F 87% 29.80 in 10.0 mi NNE 13.8 mph 19.6 mph N/A Rain Light Rain
4:33 AM 42.8 °F 36.6 °F 39.2 °F 87% 29.79 in 10.0 mi NNE 11.5 mph 24.2 mph N/A Rain Light Rain
4:54 AM 42.8 °F 36.2 °F 39.2 °F 87% 29.78 in 10.0 mi NNE 12.7 mph 23.0 mph N/A Rain Light Rain
5:13 AM 42.8 °F 36.2 °F 39.2 °F 87% 29.76 in 10.0 mi NNE 12.7 mph 20.7 mph 0.01 in Thunderstorm Unknown
5:33 AM 42.8 °F 35.8 °F 39.2 °F 87% 29.73 in 10.0 mi NNE 13.8 mph 23.0 mph 0.01 in Rain Light Rain
5:54 AM 42.8 °F 35.8 °F 39.2 °F 87% 29.74 in 10.0 mi NNE 13.8 mph 23.0 mph 0.01 in   Overcast
6:13 AM 42.8 °F 36.6 °F 39.2 °F 87% 29.74 in 10.0 mi North 11.5 mph 19.6 mph N/A Rain Rain
6:33 AM 42.8 °F 36.2 °F 39.2 °F 87% 29.74 in 10.0 mi NNE 12.7 mph 24.2 mph N/A Rain , Thunderstorm Thunderstorms and Rain
6:53 AM 41.0 °F 33.9 °F 39.2 °F 93% 29.72 in 10.0 mi NNE 12.7 mph 18.4 mph N/A   Overcast
7:13 AM 41.0 °F 34.3 °F 39.2 °F 93% 29.70 in 10.0 mi NNE 11.5 mph 19.6 mph N/A   Overcast
7:33 AM 42.8 °F 35.4 °F 39.2 °F 87% 29.69 in 10.0 mi NNE 15.0 mph 24.2 mph N/A   Overcast
7:53 AM 42.8 °F 36.2 °F 39.2 °F 87% 29.67 in 10.0 mi NNE 12.7 mph 18.4 mph N/A   Overcast
8:13 AM 42.8 °F 35.4 °F 39.2 °F 87% 29.66 in 10.0 mi NNE 15.0 mph 25.3 mph N/A   Overcast
8:33 AM 42.8 °F 35.1 °F 41.0 °F 93% 29.64 in 10.0 mi NNE 16.1 mph 21.9 mph N/A   Overcast
8:53 AM 42.8 °F 35.4 °F 41.0 °F 93% 29.64 in 10.0 mi North 15.0 mph 21.9 mph N/A   Overcast
9:13 AM 42.8 °F 36.6 °F 41.0 °F 93% 29.63 in 10.0 mi North 11.5 mph 16.1 mph N/A   Overcast
9:33 AM 42.8 °F 37.0 °F 39.2 °F 87% 29.62 in 10.0 mi North 10.4 mph 17.3 mph N/A   Overcast
9:53 AM 41.0 °F 35.2 °F 39.2 °F 93% 29.62 in 10.0 mi NW 9.2 mph 16.1 mph N/A   Overcast
10:13 AM 41.0 °F 33.5 °F 39.2 °F 93% 29.63 in 10.0 mi WNW 13.8 mph 19.6 mph N/A Rain Light Rain
10:53 AM 39.2 °F 30.2 °F 39.2 °F 100% 29.63 in 5.0 mi WNW 17.3 mph 21.9 mph 0.11 in Rain Rain
11:13 AM 39.2 °F 29.6 °F 37.4 °F 93% 29.63 in 4.0 mi WNW 19.6 mph 24.2 mph 0.03 in Rain Light Rain
11:33 AM 37.4 °F 27.2 °F 35.6 °F 93% 29.64 in 2.5 mi WNW 19.6 mph 32.2 mph 0.04 in Rain Light Rain
11:53 AM 37.4 °F 26.9 °F 35.6 °F 93% 29.64 in 2.0 mi WNW 20.7 mph 32.2 mph 0.05 in Rain Rain
12:13 PM 35.6 °F 24.5 °F 35.6 °F 100% 29.65 in 1.8 mi WNW 20.7 mph 32.2 mph 0.02 in Rain Light Rain
12:33 PM 35.6 °F 24.2 °F 35.6 °F 100% 29.66 in 3.0 mi WNW 21.9 mph 29.9 mph 0.03 in Rain Light Rain
12:53 PM 35.6 °F 23.7 °F 35.6 °F 100% 29.67 in 3.0 mi WNW 24.2 mph 31.1 mph 0.04 in Rain Rain
1:13 PM 35.6 °F 24.5 °F 33.8 °F 93% 29.68 in 1.8 mi West 20.7 mph 33.4 mph 0.03 in   Overcast
1:33 PM 35.6 °F 23.7 °F 33.8 °F 93% 29.69 in 1.8 mi West 24.2 mph 31.1 mph 0.06 in Snow Light Snow
1:53 PM 35.6 °F 23.0 °F 33.8 °F 93% 29.71 in 3.0 mi West 27.6 mph 35.7 mph 0.07 in Snow Light Snow
2:13 PM 35.6 °F 24.0 °F 35.6 °F 100% 29.72 in 4.0 mi West 23.0 mph 34.5 mph N/A Rain Light Rain
2:33 PM 35.6 °F 23.7 °F 35.6 °F 100% 29.73 in 7.0 mi West 24.2 mph 35.7 mph 0.01 in Snow Light Snow
2:53 PM 35.6 °F 23.7 °F 35.6 °F 100% 29.74 in 10.0 mi West 24.2 mph 35.7 mph 0.01 in   Light Drizzle
3:13 PM 35.6 °F 23.2 °F 33.8 °F 93% 29.76 in 10.0 mi West 26.5 mph 36.8 mph N/A   Light Drizzle
3:34 PM 35.6 °F 23.0 °F 35.6 °F 100% 29.77 in 10.0 mi West 27.6 mph 40.3 mph N/A   Light Drizzle
3:53 PM 35.6 °F 23.7 °F 35.6 °F 100% 29.78 in 10.0 mi West 24.2 mph 35.7 mph N/A   Light Drizzle
4:13 PM 35.6 °F 24.0 °F 35.6 °F 100% 29.79 in 10.0 mi West 23.0 mph 35.7 mph N/A   Light Drizzle
4:34 PM 35.6 °F 22.7 °F 35.6 °F 100% 29.80 in 10.0 mi West 28.8 mph 36.8 mph N/A   Overcast
4:53 PM 35.6 °F 23.4 °F 33.8 °F 93% 29.81 in 10.0 mi West 25.3 mph 41.4 mph N/A   Overcast
5:13 PM 35.6 °F 23.4 °F 33.8 °F 93% 29.83 in 10.0 mi West 25.3 mph 35.7 mph N/A   Light Drizzle
5:33 PM 35.6 °F 23.0 °F 33.8 °F 93% 29.83 in 10.0 mi West 27.6 mph 39.1 mph N/A   Overcast
5:53 PM 35.6 °F 23.7 °F 33.8 °F 93% 29.84 in 10.0 mi West 24.2 mph 36.8 mph N/A   Light Drizzle
6:13 PM 35.6 °F 23.4 °F 33.8 °F 93% 29.85 in 5.0 mi West 25.3 mph 35.7 mph N/A Rain Light Rain
6:33 PM 35.6 °F 23.4 °F 33.8 °F 93% 29.86 in 7.0 mi West 25.3 mph 39.1 mph N/A   Overcast
6:53 PM 33.8 °F 21.0 °F 33.8 °F 100% 29.86 in 7.0 mi West 25.3 mph 35.7 mph N/A Rain Light Rain
7:13 PM 35.6 °F 24.2 °F 33.8 °F 93% 29.86 in 10.0 mi West 21.9 mph 38.0 mph N/A   Light Drizzle
7:33 PM 35.6 °F 23.2 °F 33.8 °F 93% 29.87 in 10.0 mi West 26.5 mph 34.5 mph N/A   Light Drizzle
7:53 PM 35.6 °F 23.0 °F 33.8 °F 93% 29.87 in 7.0 mi West 27.6 mph 36.8 mph N/A Snow Light Snow
8:13 PM 33.8 °F 20.5 °F 33.8 °F 100% 29.87 in 5.0 mi West 27.6 mph 35.7 mph N/A Snow Light Snow
8:33 PM 33.8 °F 20.3 °F 33.8 °F 100% 29.88 in 5.0 mi West 28.8 mph 36.8 mph N/A Snow Light Snow
8:53 PM 33.8 °F 20.5 °F 33.8 °F 100% 29.88 in 2.5 mi West 27.6 mph 36.8 mph N/A Snow Light Snow
9:13 PM 33.8 °F 21.3 °F 33.8 °F 100% 29.88 in 4.0 mi West 24.2 mph 39.1 mph N/A Snow Light Snow
9:33 PM 33.8 °F 21.3 °F 33.8 °F 100% 29.88 in 4.0 mi West 24.2 mph 34.5 mph N/A Snow Light Snow
9:53 PM 33.8 °F 22.2 °F 33.8 °F 100% 29.88 in 7.0 mi West 20.7 mph 34.5 mph N/A Snow Light Snow
10:13 PM 33.8 °F 22.2 °F 33.8 °F 100% 29.89 in 7.0 mi West 20.7 mph 34.5 mph N/A   Overcast
10:33 PM 33.8 °F 21.3 °F 33.8 °F 100% 29.89 in 7.0 mi West 24.2 mph 38.0 mph N/A Snow Light Snow
10:53 PM 33.8 °F 21.3 °F 33.8 °F 100% 29.89 in 7.0 mi West 24.2 mph 33.4 mph N/A Snow Light Snow
11:13 PM 33.8 °F 21.3 °F 33.8 °F 100% 29.90 in 7.0 mi West 24.2 mph 36.8 mph N/A   Overcast
11:33 PM 33.8 °F 20.8 °F 33.8 °F 100% 29.90 in 7.0 mi West 26.5 mph 39.1 mph N/A Snow Light Snow
11:53 PM 33.8 °F 20.8 °F 33.8 °F 100% 29.90 in 7.0 mi West 26.5 mph 33.4 mph N/A   Overcast